SCP
0 0 0 0 0 0 0 0 0 0 1 1 2 2 2 2 2 2 2 2 2 1 1 1 1 1 1 1 1 1 1 1 2 2 2 2 2 2 2 1 1 2 2 2
0 0 0 0 0 0 0 0 0 0 1 2 2 3 2 2 2 2 3 3 2 2 1 1 1 1 1 1 1 1 1 1 1 2 2 2 2 2 2 1 2 2 2 2
0 0 0 0 0 0 0 0 0 0 1 2 2 3 3 2 2 2 3 3 3 2 2 2 2 2 2 2 2 2 2 1 1 1 1 2 2 2 2 2 2 2 2 2
0 0 0 0 0 0 0 0 0 0 1 1 1 2 2 2 2 2 2 3 3 3 2 2 2 2 2 2 3 3 3 3 2 2 2 2 2 2 2 2 2 2 1 2
0 0 0 0 0 0 0 0 0 0 0 0 1 1 1 1 1 1 2 2 3 2 2 2 2 1 1 2 2 3 3 3 3 3 2 2 2 2 2 2 2 2 2 2
0 0 0 0 0 0 0 0 0 0 0 0 0 1 1 1 1 2 2 2 2 2 1 1 1 1 1 1 1 2 2 2 2 2 2 1 1 2 2 2 2 2 2 2
0 0 0 0 0 0 0 0 0 0 0 0 0 0 1 1 2 3 3 3 2 1 1 1 1 1 1 1 1 1 1 1 1 1 1 1 1 1 1 1 1 1 1 1
0 0 0 0 0 0 0 0 0 0 0 0 0 0 1 1 2 4 4 3 2 2 1 1 1 0 0 0 0 0 0 0 0 0 0 0 0 0 0 1 1 1 1 1
0 0 0 0 0 0 0 0 0 0 0 0 0 0 1 1 3 4 4 3 2 1 1 1 0 0 0 0 0 0 0 0 0 0 0 0 0 0 0 0 0 0 0 0
0 0 0 0 0 0 0 0 0 0 0 0 0 0 0 1 2 3 3 2 2 1 1 1 0 0 0 0 0 0 0 0 0 0 0 0 0 0 0 0 0 0 0 0
0 0 0 0 0 0 0 0 0 0 0 0 0 0 0 1 1 2 2 2 1 1 1 1 1 0 0 0 0 0 0 0 0 0 0 0 0 0 0 0 0 0 0 0
0 0 0 0 0 0 0 0 0 0 0 0 0 0 0 1 1 1 1 1 1 1 1 1 1 0 0 0 0 0 0 0 0 0 0 0 0 0 0 0 0 0 0 0
0 0 0 0 0 0 0 0 0 0 0 0 0 0 1 1 1 1 1 0 0 1 1 1 0 0 0 0 0 0 0 0 0 0 0 0 0 0 0 0 0 0 0 0
0 0 0 0 0 0 0 0 0 0 0 0 0 0 1 1 1 1 1 0 0 1 1 1 0 0 0 0 0 0 0 0 0 0 0 0 0 0 0 0 0 0 0 0
0 0 0 0 0 0 0 0 0 0 0 0 0 0 1 1 1 0 0 0 0 0 0 0 0 0 0 0 0 0 0 0 0 0 0 0 0 0 0 0 0 0 0 0
0 0 0 0 0 0 0 1 1 1 0 0 0 0 0 0 0 0 0 0 0 0 0 0 0 0 0 0 0 0 0 0 0 0 0 0 0 0 0 0 0 0 0 0
0 0 0 0 0 0 0 1 1 1 1 1 1 1 1 0 0 0 0 0 0 0 0 0 0 0 0 0 0 0 0 0 0 0 0 0 0 0 0 0 0 0 0 0
0 0 0 0 0 0 0 0 1 1 1 1 1 1 1 1 1 1 0 0 0 0 0 0 0 0 0 0 0 0 0 0 0 0 0 0 0 0 0 0 0 0 0 0
0 0 0 0 0 0 0 0 0 0 0 0 0 1 0 0 0 1 0 0 0 0 0 0 0 0 0 0 0 0 0 0 0 0 0 0 0 0 0 0 0 0 0 0
0 0 0 0 0 0 0 0 0 0 0 0 0 0 0 0 0 0 0 0 0 0 0 0 0 0 0 0 0 0 0 0 0 0 0 0 0 0 0 0 0 0 0 0
0 0 0 0 0 0 0 0 0 0 0 0 0 0 0 0 0 0 0 0 0 0 0 0 0 0 0 0 0 0 0 0 0 0 0 0 0 0 0 0 0 0 0 0
0 0 0 0 0 0 0 0 0 0 0 0 0 0 0 0 0 0 0 0 0 0 0 0 0 0 0 0 0 0 0 0 0 0 0 0 0 0 0 0 0 0 0 0
0 0 0 0 0 0 0 0 0 0 0 0 0 0 0 0 0 0 0 0 0 0 0 0 0 0 0 0 0 0 0 0 0 0 0 0 0 0 0 0 0 0 0 0
0 0 0 0 0 0 0 0 0 0 0 0 0 0 0 0 0 0 0 0 0 0 0 0 0 0 0 0 0 0 0 0 0 0 0 0 0 0 0 0 0 0 0 0
0 0 0 0 0 0 0 0 0 0 0 0 0 0 0 0 0 0 0 0 0 0 0 0 0 0 0 0 0 0 0 0 0 0 0 0 0 0 0 0 0 0 0 0
0 0 0 0 0 0 0 0 0 0 0 0 0 0 0 0 0 0 0 0 0 0 0 0 0 0 0 0 0 0 0 0 0 0 0 0 0 0 0 0 0 0 0 0
Wind_Speed
1 3 3 7 5 6 3 3 4 6 3 5 8 9 9 8 9 11 11 11 10 9 7 6 6 6 6 5 5 5 5 4 4 2 1 1 1 1 1 1 1 1 1 1
4 5 10 8 6 5 4 3 4 5 0 6 9 7 6 6 8 11 13 12 12 10 8 6 6 6 6 6 5 5 4 5 4 3 2 1 0 1 2 2 2 3 2 2
6 9 6 5 6 4 4 4 3 1 4 8 9 5 4 4 5 8 9 10 10 11 10 7 7 6 7 7 6 6 6 6 6 6 3 3 3 3 3 3 3 3 3 3
5 7 4 3 4 3 3 4 3 2 5 2 4 3 1 4 4 7 8 9 9 10 9 8 7 7 6 6 6 6 6 6 6 6 5 5 4 3 2 2 2 3 4 4
5 3 1 2 3 3 4 2 3 4 5 4 4 5 2 3 5 8 9 10 9 10 10 9 8 7 7 6 6 5 6 6 6 7 6 6 5 3 2 3 4 4 4 4
5 3 1 3 2 1 3 5 7 6 6 4 1 3 3 3 6 10 10 12 11 11 11 9 8 7 7 6 6 5 6 6 6 7 6 6 6 5 5 5 5 4 3 4
6 5 3 2 4 5 6 7 5 6 5 1 2 2 3 5 4 9 13 12 11 10 10 9 8 7 6 6 6 5 6 6 6 7 7 6 6 6 5 4 4 4 3 3
2 5 4 2 0 1 1 7 7 3 2 2 3 1 4 2 2 8 11 13 11 9 9 9 8 7 6 6 5 5 5 5 5 6 5 5 5 4 4 4 3 3 2 3
1 4 5 3 1 4 2 1 5 7 3 2 2 2 3 2 7 9 11 11 11 10 9 10 8 7 6 5 4 4 5 5 5 5 5 5 5 5 4 4 3 3 3 3
3 2 5 4 5 6 4 4 6 5 4 1 2 3 4 3 5 8 9 10 9 10 10 9 8 7 6 5 4 4 4 4 4 4 4 4 4 4 4 4 4 4 4 4
3 2 5 5 3 1 4 4 5 3 4 5 3 5 5 7 8 9 9 9 10 11 10 9 8 7 6 5 4 4 4 4 4 4 4 4 4 4 4 4 4 4 5 5
2 4 1 4 3 1 4 3 4 3 2 3 3 5 2 6 8 9 9 8 8 9 9 10 8 7 6 5 4 4 3 3 3 3 4 4 4 4 5 5 5 5 5 5
3 5 3 7 7 6 4 1 2 4 3 3 4 3 1 6 9 9 10 9 9 10 10 8 7 6 5 4 4 3 3 3 3 3 4 4 4 4 4 4 4 5 5 6
4 4 4 4 4 3 3 4 1 3 2 2 4 5 3 5 7 8 9 10 9 10 10 9 6 5 5 4 4 3 3 2 3 3 4 4 4 4 4 4 5 5 5 6
5 3 1 2 2 2 3 5 4 1 2 4 3 6 8 8 9 9 9 10 11 11 10 9 7 5 5 5 4 3 3 2 3 3 3 3 3 4 5 5 5 6 6 6
5 3 3 4 3 3 7 10 7 5 3 3 5 3 3 6 7 8 9 11 11 10 10 9 8 7 6 5 4 3 3 2 3 3 3 3 3 4 5 5 5 6 6 6
3 3 3 3 5 3 6 7 6 6 5 3 2 3 6 7 7 8 9 11 11 10 9 9 7 6 6 5 4 4 3 2 3 3 3 3 4 4 4 5 5 6 5 6
3 2 2 1 4 3 1 3 5 6 6 5 6 6 6 7 5 4 6 9 9 9 9 8 6 5 4 4 4 4 3 3 3 3 3 3 4 4 4 5 5 5 4 5
4 4 2 2 1 0 1 4 3 2 4 4 7 7 7 7 7 4 4 6 7 8 7 6 6 5 5 4 4 4 4 3 3 3 3 3 3 4 4 4 4 3 4 5
4 5 4 2 1 0 3 6 4 4 3 1 5 6 7 5 3 3 4 7 8 7 6 6 5 6 5 4 5 5 4 3 3 3 3 3 3 4 4 3 3 3 4 4
4 4 3 2 1 1 4 8 3 3 2 2 4 5 5 2 3 6 8 8 8 7 6 6 6 5 4 4 5 5 4 3 3 3 4 4 3 3 3 3 3 3 4 4
3 3 2 2 2 2 6 5 3 2 1 3 4 4 5 7 8 8 8 8 8 7 6 5 5 4 4 5 6 5 4 3 4 4 4 4 3 3 3 4 3 3 4 5
3 2 3 2 3 3 2 1 0 3 4 3 4 6 8 8 8 8 8 7 7 6 6 5 6 5 3 4 5 5 3 4 5 5 5 4 4 4 4 4 3 3 3 3
3 2 3 3 2 1 2 2 3 4 4 4 7 8 8 8 8 8 7 7 6 5 5 5 6 5 3 3 4 4 5 5 5 5 4 4 5 5 5 4 3 3 2 3
2 2 3 2 0 2 3 2 4 5 7 8 7 7 8 9 8 8 7 7 5 5 4 5 6 5 4 4 4 4 5 6 5 4 4 4 4 4 4 4 4 3 1 2
2 2 3 3 3 2 2 1 5 6 6 8 8 7 6 7 8 7 7 6 5 5 5 5 5 5 5 5 4 4 5 5 5 4 3 3 3 3 3 3 4 7 5 6
Wind_Direction
302 59 264 247 225 212 230 254 268 267 242 119 130 139 157 162 150 141 138 137 133 130 123 108 94 83 73 61 52 41 32 10 10 359 8 28 61 70 67 70 72 75 87 122
16 266 244 245 260 248 242 263 281 294 243 117 120 125 145 150 153 144 143 143 138 130 121 108 94 82 74 67 60 50 36 21 14 0 335 318 89 73 73 54 43 39 46 50
212 246 252 244 262 253 255 215 231 235 58 85 102 66 87 113 115 125 132 136 137 137 130 117 98 81 73 65 57 53 35 25 16 8 8 21 40 43 37 32 23 17 37 47
245 254 262 267 266 195 253 225 191 150 92 89 118 127 200 163 144 140 140 138 138 133 125 117 106 91 80 70 59 51 37 32 23 20 33 46 55 55 31 24 29 17 29 36
276 268 269 277 256 165 212 191 98 113 118 83 38 114 228 172 167 169 159 145 138 133 127 120 112 102 91 79 67 51 42 36 32 35 38 51 50 44 33 33 38 27 19 20
261 276 213 237 278 136 123 60 47 51 72 76 314 124 205 222 205 175 162 149 143 135 125 117 108 98 86 75 67 56 51 41 35 43 43 50 55 50 46 35 32 23 15 12
333 330 332 6 13 9 61 77 38 18 28 264 278 118 229 254 235 173 158 148 142 135 128 121 111 100 90 78 68 60 58 47 38 45 44 45 53 54 50 39 34 26 11 2
16 320 319 353 183 206 69 123 141 163 202 275 356 320 273 294 117 127 136 136 134 131 127 121 117 110 102 91 77 65 61 52 44 48 46 45 48 51 45 38 35 25 5 348
127 283 302 332 3 125 95 82 149 124 108 78 318 296 300 73 102 118 126 127 132 131 126 121 116 108 103 95 85 75 68 57 45 44 48 45 44 48 43 34 31 20 2 357
119 306 317 335 33 30 123 135 81 98 132 157 283 261 234 191 147 137 136 131 131 129 126 120 116 112 104 94 87 75 72 67 53 45 47 51 40 41 40 35 29 19 9 6
74 72 333 8 37 355 37 56 81 100 142 146 209 260 225 185 161 151 144 140 141 139 131 124 120 117 109 100 92 84 74 67 58 51 49 47 36 33 36 32 23 20 19 19
81 102 337 298 277 152 119 126 128 140 216 165 170 259 296 151 135 135 136 136 136 132 127 125 123 117 111 108 100 88 77 73 68 60 54 46 35 34 33 26 19 22 22 23
95 90 34 348 346 0 33 41 148 140 131 158 166 243 27 116 125 134 137 137 133 130 127 121 119 120 120 116 103 91 83 79 70 64 57 44 36 36 32 24 23 28 34 33
97 93 142 193 249 292 330 337 16 116 144 196 191 170 169 153 143 141 138 138 134 134 131 125 122 125 122 113 109 107 93 82 77 69 62 53 42 40 37 34 35 36 42 44
77 80 10 273 288 21 5 346 358 65 183 174 182 163 185 176 161 155 146 141 136 136 136 135 134 130 123 115 111 107 98 82 80 76 66 57 49 47 46 44 41 42 43 45
55 78 27 342 334 34 34 17 21 31 48 98 108 89 134 132 135 146 151 148 145 145 144 140 136 133 133 133 129 114 100 92 87 81 72 66 58 56 52 50 49 48 42 39
34 79 56 321 318 35 33 6 36 44 28 80 103 141 135 130 147 157 154 149 150 149 144 142 141 140 142 139 136 129 120 109 97 87 82 79 70 61 55 60 55 51 45 45
134 88 95 348 15 55 187 6 61 76 40 58 93 112 118 126 116 109 134 140 144 145 143 142 140 139 138 132 130 127 118 108 102 92 86 85 78 70 62 62 56 51 48 49
151 129 95 73 39 352 16 350 339 110 49 58 100 99 101 109 89 71 98 126 137 139 140 141 142 136 133 133 132 120 106 98 92 92 97 96 92 81 72 67 58 53 58 53
77 90 101 82 71 352 311 315 315 109 68 48 117 127 135 124 126 168 137 121 120 123 128 132 129 123 127 133 126 119 115 105 98 98 100 105 96 90 82 74 66 59 66 64
40 44 77 104 121 319 310 317 13 90 235 213 148 150 149 145 157 143 131 123 126 128 130 127 126 129 139 137 127 124 120 122 123 106 95 92 85 87 84 71 62 68 66 64
89 75 56 85 88 282 321 8 53 200 201 127 123 125 113 109 112 121 127 127 128 125 127 125 126 128 133 134 128 126 133 138 118 102 94 87 73 70 79 78 66 66 76 71
62 148 159 144 191 241 346 69 248 132 113 114 123 128 125 122 126 126 128 131 133 134 132 126 126 120 116 128 131 132 144 133 115 103 97 86 69 60 63 77 80 71 74 80
347 43 85 70 48 47 44 60 67 89 111 122 131 133 128 126 132 132 133 132 132 133 133 131 127 124 121 124 129 138 136 125 117 112 104 94 81 65 52 51 63 78 81 96
293 49 74 73 97 37 28 69 97 92 104 112 119 125 129 129 133 135 136 138 137 135 134 134 136 139 142 132 128 132 129 121 116 112 107 100 91 89 72 59 47 65 55 137
309 142 138 204 224 173 225 175 126 122 125 128 126 120 122 132 136 135 139 141 140 139 133 131 133 134 137 134 133 133 131 128 124 116 114 111 106 99 95 91 58 37 51 70